Regional Weather Roundup
Issued by NWS

Home | Current Version | Previous Version | Text Only | Print | Product List | Glossary Off
Versions: 1 2 3 4 5 6 7 8 9 10 11 12 13 14 15 16 17 18 19 20 21 22 23 24 25 26 27 28 29 30 31 32 33 34 35 36 37 38 39 40 41 42 43 44 45 46 47 48 49 50

000
ASUS43 KIND 251259
RWRIN

WEATHER ROUNDUP FOR INDIANA
NATIONAL WEATHER SERVICE INDIANAPOLIS IN
900 AM EDT MON MAY 25 2015

NOTE: "FAIR" INDICATES FEW OR NO CLOUDS BELOW 12,000 FEET WITH NO
SIGNIFICANT WEATHER AND/OR OBSTRUCTIONS TO VISIBILITY.

* - STATION DOES NOT REPORT WEATHER SUCH AS PRECIPITATION OR FOG.

+ - STATION NOT QUALITY CONTROLLED BY THE NATIONAL WEATHER SERVICE.
    USE DATA WITH CAUTION...ESPECIALLY DEWPOINT AND RELATIVE
    HUMIDITY OBSERVATIONS.

INZ001>003-010>013-019-020-251400-
NORTHWEST INDIANA

CITY           SKY/WX    TMP DP  RH WIND       PRES   REMARKS
GARY /AIRPORT/ PTSUNNY   72  68  88 S12       29.88S

$$

LMZ046-743>745-251400-
SOUTHERN LAKE MICHIGAN

STATION/POSITION TIME  TEMP    WIND        PRES    WAVE
                       AIR SEA DIR/SP/G            HT
                 (UTC) (F)     (DEG/KT/KT) (MB)    (FT)
BURNS HARBOR     1200   72     190/ 17/ 29 1012.2F
MICHIGAN CITY    1200   72     160/ 14/ 20   N/A
5NW MICH CITY    1200   66 53  200/ 14/ 23   N/A     2

$$

INZ004-005-014>016-021>024-251400-
NORTH CENTRAL INDIANA

CITY           SKY/WX    TMP DP  RH WIND       PRES   REMARKS
ELKHART        CLOUDY    72  63  73 S10       29.95S
GOSHEN         CLOUDY    72  63  73 S17       29.95F
SOUTH BEND     CLOUDY    74  65  73 S21       29.92F

$$

INZ006>009-017-018-025>027-251400-
NORTHEAST INDIANA

CITY           SKY/WX    TMP DP  RH WIND       PRES   REMARKS
ANGOLA *+      PTSUNNY   72  63  73 S13       29.99S
FORT WAYNE     LGT RAIN  71  64  78 SW18G28   30.01F

$$

INZ028-029-035-036-043>045-051>053-251400-
WEST CENTRAL INDIANA

CITY           SKY/WX    TMP DP  RH WIND       PRES   REMARKS
GREENCASTLE +  CLOUDY    68  61  77 S10G21    30.04R
LAFAYETTE      CLOUDY    70  64  81 SW15G26   29.96S
TERRE HAUTE    CLOUDY    70  65  84 S15G22    30.01S

$$

INZ030>032-037>040-046>048-054>057-064-065-251400-
CENTRAL INDIANA

CITY           SKY/WX    TMP DP  RH WIND       PRES   REMARKS
COLUMBUS       PTSUNNY   68  63  83 S16G28    30.09R
GREENWOOD *+   CLOUDY    70  63  78 S18G24    30.06R
INDIANAPOLIS   CLOUDY    70  64  81 S24G30    30.02R
-EAGLE CREEK   CLOUDY    70  64  81 S16G26    30.03R
KOKOMO *+      CLOUDY    72  63  73 S20G28    30.00S
MT COMFORT *+  CLOUDY    70  68  94 S13G22    30.05S
SHELBYVILLE    CLOUDY    72  65  78 S18G29    30.06R

$$

INZ033-034-041-042-049-050-058-059-251400-
EAST CENTRAL INDIANA

CITY           SKY/WX    TMP DP  RH WIND       PRES   REMARKS
MUNCIE         CLOUDY    71  63  75 S15G23    30.04R

$$

INZ060-061-067>069-081>083-085>088-251400-
SOUTHWEST INDIANA

CITY           SKY/WX    TMP DP  RH WIND       PRES   REMARKS
EVANSVILLE     LGT RAIN  68  66  93 S9        30.09R
HUNTINGBURG *+ CLOUDY    66  63  88 S17       30.10R

$$

INZ062-063-066-070>080-084-089>092-251400-
SOUTH CENTRAL AND SOUTHEAST INDIANA

CITY           SKY/WX    TMP DP  RH WIND       PRES   REMARKS
BLOOMINGTON    CLOUDY    69  65  86 S13G21    30.06R
MADISON *+     CLOUDY    64  61  88 S9        30.16S
SEYMOUR +      CLOUDY    72  63  73 S14G22    30.10R

$$



USA.gov is the U.S. government's official web portal to all federal, state and local government web resources and services.